Regional Weather Roundup
Issued by NWS

Home | Current Version | Previous Version | Graphics & Text | Print | Product List | Glossary On
Versions: 1 2 3 4 5 6 7 8 9 10 11 12 13 14 15 16 17 18 19 20 21 22 23 24 25 26 27 28 29 30 31 32 33 34 35 36 37 38 39 40 41 42 43 44 45 46 47 48 49 50
000
ASUS45 KCYS 281210
RWRWY

WYOMING REGIONAL WEATHER ROUNDUP
NATIONAL WEATHER SERVICE CHEYENNE WY
600 AM MDT TUE APR 28 2015

NOTE:  "FAIR" INDICATES FEW OR NO CLOUDS BELOW 12,000 FEET
WITH NO SIGNIFICANT WEATHER AND/OR OBSTRUCTIONS TO VISIBILITY.

WYZ001-281300-
YELLOWSTONE NATIONAL PARK

CITY           SKY/WX    TMP DP  RH WIND       PRES   REMARKS
LK YELLOWSTONE   N/A     22  19  89 CALM      30.37S
6HR MIN TEMP:  22; 6HR MAX TEMP:  28;

W YELLOWSTONE  NOT AVBL

$$
WYZ002>013-054>058-071-098>099-281300-
NORTHERN WYOMING

CITY           SKY/WX    TMP DP  RH WIND       PRES   REMARKS
JACKSON        FAIR      27  25  93 N7        30.34F WCI  19
CODY           FAIR      34  30  86 CALM      30.28S
GREYBULL       FAIR      36  32  85 SE3       30.30S
6HR MIN TEMP:  35; 6HR MAX TEMP:  44;

WORLAND        FAIR      36  33  89 CALM      30.29S
6HR MIN TEMP:  36; 6HR MAX TEMP:  43;

SHERIDAN       FAIR      29  25  85 CALM      30.29S
6HR MIN TEMP:  28; 6HR MAX TEMP:  37;

BUFFALO        FAIR      37  27  67 W7        30.30S WCI  32
6HR MIN TEMP:  35; 6HR MAX TEMP:  41;

GILLETTE       FAIR      36  32  85 VRB3      30.29F
6HR MIN TEMP:  34; 6HR MAX TEMP:  40;

HULETT         FAIR      32  32 100 CALM      30.32F
NEWCASTLE      FOG       36  36 100 CALM      30.34S VSB<1/4

$$
WYZ014>020-022>026-101>103-281300-
CENTRAL WYOMING

CITY           SKY/WX    TMP DP  RH WIND       PRES   REMARKS
BIG PINEY      FAIR      28  26  92 CALM      30.36F
6HR MIN TEMP:  28; 6HR MAX TEMP:  38;

PINEDALE       PTSUNNY   34  32  93 N3        30.36F
DUBOIS         FAIR      32  28  86 W10       30.33F WCI  24
LANDER         FAIR      36  31  82 NW8       30.30F WCI  30
6HR MIN TEMP:  33; 6HR MAX TEMP:  40;

RIVERTON       FAIR      37  31  78 SW3       30.32F
6HR MIN TEMP:  32; 6HR MAX TEMP:  44;

CASPER         FAIR      31  28  89 SW6       30.32S WCI  25
6HR MIN TEMP:  30; 6HR MAX TEMP:  43;

DOUGLAS        CLOUDY    40  38  93 CALM      30.33S
6HR MIN TEMP:  37; 6HR MAX TEMP:  44;


$$
WYZ021-027>030-104>119-281300-
SOUTHERN WYOMING

CITY           SKY/WX    TMP DP  RH WIND       PRES   REMARKS
EVANSTON       FAIR      34  28  79 E10       30.32F WCI  26
6HR MIN TEMP:  34; 6HR MAX TEMP:  42;

KEMMERER       FAIR      32  32 100 N8        30.34F WCI  25
FORT BRIDGER   SUNNY     32  32 100 CALM      30.36F
ROCK SPRINGS   FAIR      32  30  92 S3        30.35R
6HR MIN TEMP:  32; 6HR MAX TEMP:  39;

DIXON          FAIR      30  29  94 CALM      30.35S
RAWLINS        CLOUDY    36  31  82 N5        30.34S WCI  32
6HR MIN TEMP:  36; 6HR MAX TEMP:  39;

SARATOGA       CLOUDY    34  32  93 CALM      30.34S
LARAMIE        FAIR      30  28  92 S9        30.31S WCI  22
6HR MIN TEMP:  30; 6HR MAX TEMP:  37;

CHEYENNE       CLOUDY    38  36  92 S5        30.33S WCI  34
6HR MIN TEMP:  38; 6HR MAX TEMP:  40;

TORRINGTON     MOCLDY    36  35  96 E8        30.33S WCI  30
6HR MIN TEMP:  35; 6HR MAX TEMP:  43;

PINE BLUFFS    CLOUDY    39  37  93 CALM      30.34S FOG

$$



USA.gov is the U.S. government's official web portal to all federal, state and local government web resources and services.